Regional Weather Roundup
Issued by NWS

Home | Current Version | Previous Version | Graphics & Text | Print | Product List | Glossary On
Versions: 1 2 3 4 5 6 7 8 9 10 11 12 13 14 15 16 17 18 19 20 21 22 23 24 25 26 27
000
ASUS45 KBOU 250407
RWRCO

WEATHER ROUNDUP FOR COLORADO
NATIONAL WEATHER SERVICE DENVER/BOULDER CO
1000 PM MDT SUN JUL 24 2016

NOTE: "FAIR" INDICATES FEW OR NO CLOUDS BELOW 12000 FEET WITH NO
SIGNIFICANT WEATHER AND/OR OBSTRUCTIONS TO VISIBILITY.

COZ001>005-013-030-031-250500-
...NORTHWEST COLORADO...

CITY           SKY/WX    TMP DP  RH WIND       PRES   REMARKS
CRAIG          FAIR      68  42  38 N6        30.21R
HAYDEN         FAIR      70  39  32 E3        30.24R
MEEKER         FAIR      68  42  38 E6        30.22R
MOUNT WERNER   NOT AVBL
STEAMBOAT SPGS FAIR      64  43  46 SE6       30.28R
WALDEN         FAIR      59  41  51 S7        30.39S
$$

COZ006>008-011-250500-
...WEST CENTRAL VALLEYS...

CITY           SKY/WX    TMP DP  RH WIND       PRES   REMARKS
GRAND JUNCTION FAIR      84  37  18 E9        30.05R
MONTROSE       FAIR      77  41  27 SE10      30.17R
EAGLE          FAIR      68  43  40 E7        30.28R
RIFLE          FAIR      77  44  30 SE13      30.14R
DELTA          FAIR      80  37  21 E12       30.12R
NUCLA          FAIR     N/A N/A N/A E13       30.22R
$$

COZ017>023-064>068-250500-
...SOUTHWEST COLORADO...

CITY           SKY/WX    TMP DP  RH WIND       PRES   REMARKS
DURANGO        FAIR      69  45  41 VRB5      30.27R
CORTEZ         MOCLDY    80  43  26 NW10G18   30.21R
PAGOSA SPRINGS FAIR      74  38  27 SE6       30.38R
TELLURIDE      FAIR      60  44  55 SE5       30.51R
WOLF CREEK PAS CLOUDY    54  30  40 SW8       30.75R
$$

COZ009-010-012-014-032>034-037-058>063-250500-
...CENTRAL COLORADO...

CITY           SKY/WX    TMP DP  RH WIND       PRES   REMARKS
ASPEN          FAIR      60  44  55 SW7       30.36R
BUENA VISTA    MOCLDY    66  46  48 CALM      30.42R
COPPER MTN     MOCLDY    59  28  31 W5        30.73R
BERTHOUD PASS  FAIR      46  34  61 CALM      30.77R
COTTONWOOD PAS MOCLDY    64  36  34 E10       30.57R
GUNNISON       FAIR      64  39  39 N6        30.38R
KREMMLING      FAIR      54  46  76 CALM      30.37R
LEADVILLE      CLOUDY    54  36  50 CALM      30.54R
MONARCH PASS   FAIR      52  37  58 E22       30.82R
SALIDA         FAIR      72  44  36 SE14G21   30.45R
SUNLIGHT       FAIR      59  37  44 CALM      30.63S
WILKERSON PASS FAIR      52  39  62 SE6       30.70R
$$

COZ069>075-250500-
...SAN LUIS VALLEY/SANGRE DE CRISTO MOUNTAINS...

CITY           SKY/WX    TMP DP  RH WIND       PRES   REMARKS
ALAMOSA        FAIR      70  47  43 S7        30.34R
LA VETA PASS   MOCLDY    57  45  62 N7        30.58S
SAGUACHE       FAIR      70  41  35 N8        30.37R
$$

COZ035-036-038>040-250500-
...NORTHERN COLORADO FRONT RANGE...

CITY           SKY/WX    TMP DP  RH WIND       PRES   REMARKS
DENVER INTL AP FAIR      65  56  72 SE25G36   30.27R
DMNS CITY PARK   N/A     68  53  58 E13G18    30.27R
AURORA         MOCLDY    65  55  69 SE23G33   30.28R
FRONT RANGE AP NOT AVBL
ERIE MUNI ARPT FAIR      68  55  62 E7        30.28R
BOULDER MUN AP FAIR      68  55  64 CALM      30.28R
CENTENNIAL     FAIR      69  54  58 SE15G24   30.28R
BROOMFIELD     PTCLDY    72  54  53 E12       30.30R
LONGMONT       FAIR      67  57  70 E5        30.29R
$$

COZ041-046-047-076>085-087-088-250500-
...PIKES PEAK/PALMER DIVIDE AND SOUTHERN FOOTHILLS...

CITY           SKY/WX    TMP DP  RH WIND       PRES   REMARKS
COLO. SPRINGS  MOCLDY    68  56  65 CALM      30.35R
A. F. ACADEMY  MOCLDY    66  54  64 S10       30.34R
SCHRIEVER AFB  NOT AVBL
ELLICOTT       FAIR     N/A N/A N/A E17       30.32R
FALCON         FAIR      62  54  75 E5        30.39R
FORT CARSON    NOT AVBL
LIMON          FAIR      61  57  87 E21G29    30.30R
MONUMENT HILL  FAIR      59  52  77 SE9       30.40R
TRINIDAD       NOT AVBL
$$

COZ042>045-048>051-090-091-250500-
...NORTHEAST COLORADO...

CITY           SKY/WX    TMP DP  RH WIND       PRES   REMARKS
GREELEY ARPT   FAIR      63  57  82 NW6       30.28R
AKRON          FAIR      63  54  72 SE21G32   30.22R
BURLINGTON     RAIN      64  60  87 NE35      30.23F
WRAY           NOT AVBL
STERLING       FAIR      68  55  64 S14G20    30.16R
HOLYOKE        FAIR      73  55  53 W21G36    30.11F
FORT MORGAN    FAIR      62  56  82 E8        30.24R
$$

COZ086-089-092>099-250500-
...SOUTHEAST COLORADO...

CITY           SKY/WX    TMP DP  RH WIND       PRES   REMARKS
PUEBLO         FAIR      73  59  61 N6        30.20R
LA JUNTA       FAIR      71  63  75 N16       30.14R
LAMAR          FAIR      75  61  61 NE7       30.13R
SPRINGFIELD      N/A     73  58  59 S12       30.19R
$$




USA.gov is the U.S. government's official web portal to all federal, state and local government web resources and services.